Simultaneous Nadir Overpasses (SNOs) Predictions

Prediction of SNOs between AQUA and NPP Satellite Orbit:

Table of predicted SNOs for the next 14.0 days since TLE Epoch: 7/27/2015
Index Date (AQUA) Time (AQUA) Lat,Lon (AQUA) SZA (AQUA ) Date (NPP) Time (NPP) Lat,Lon (NPP) SZA (NPP ) Distance(km) Time Diff (sec)
1 07/27/2015 20:11:19 71.94, 107.18 83.35 07/27/2015 20:11:46 71.93, 107.13 83.34 2.05 27
2 07/30/2015 11:38:40 -70.76, 53.51 94.80 07/30/2015 11:38:17 -70.77, 53.54 94.79 1.14 23
3 07/30/2015 12:27:26 72.85,-135.25 82.97 07/30/2015 12:28:20 72.85,-135.29 82.93 1.54 54
4 08/02/2015 03:06:12 68.82, -0.92 87.87 08/02/2015 03:05:00 68.82, -0.88 87.92 1.69 72
5 08/02/2015 03:54:45 -71.84, 171.15 95.32 08/02/2015 03:54:49 -71.85, 171.20 95.34 1.75 4
6 08/02/2015 04:38:31 80.83, 71.74 65.23 08/02/2015 04:39:44 80.25, 69.95 64.98 72.23 73
7 08/04/2015 19:22:26 69.41, 115.75 87.91 08/04/2015 19:21:42 69.40, 115.70 87.97 2.03 44
8 08/04/2015 20:11:02 -72.26, -72.22 95.09 08/04/2015 20:11:34 -72.25, -72.26 95.11 1.69 32
9 08/07/2015 11:38:22 70.98,-126.11 86.97 08/07/2015 11:38:05 70.98,-126.10 86.98 0.47 17
10 08/07/2015 12:27:04 -73.45, 45.99 95.69 08/07/2015 12:28:03 -73.46, 46.03 95.76 1.46 59
11 08/10/2015 03:05:54 -69.16, 179.56 90.43 08/10/2015 03:04:48 -69.16, 179.58 90.37 1.09 66
12 08/10/2015 03:54:30 71.81, -8.86 86.81 08/10/2015 03:54:41 71.80, -8.88 86.81 0.87 11
